Date String (YYYY-MM-DD hh:mm:ss) UTC,Instrument flags,absolute air pressure of the measurement (hPa),sample flow rate (lpm),inlet stack bypass flow (lpm),air temperature of the measurement (°C),ambient temperature measured by the external sensor (°C),aerosol sample conditioner tube jacket temperature (°C),OPC LED temperature (°C),internal box temperature (°C),relative humidity of the measurement (%),span deviation,mass concentration of particles derived from Lorenz-Mie calculation of OPC scattering (μg/m³),mass concentration of particles derived from Lorenz-Mie calculation of OPC scattering (μg/m³),mass concentration of particles derived from Lorenz-Mie calculation of OPC scattering (μg/m³)
DateTimeUTC,F1_M11,P_M11,Q1_M11,Q2_M11,T1_M11,T2_M11,T3_M11,T4_M11,T5_M11,U1_M11,ZSPAN_M11,X2_M11,X0_M11,X1_M11
2024-05-20 16:00:00,SystemResetWarning,0826.8,5.01,000.00,025.6,025.0,000.0,033.7,027.4,023.3,0000.0,0004.77,0016.06,0003.68
2024-05-20 16:01:00,SystemResetWarning,0826.7,5.01,000.00,025.6,025.0,000.0,033.7,027.4,023.1,0000.0,0004.79,0015.79,0003.69
2024-05-20 16:02:00,SystemResetWarning,0826.6,4.99,000.00,025.6,025.0,000.0,033.8,027.4,022.9,0000.0,0004.80,0016.23,0003.70
2024-05-20 16:03:00,SystemResetWarning,0826.6,4.99,000.00,025.6,025.1,000.0,033.8,027.5,023.5,0000.0,0004.80,0015.54,0003.71
2024-05-20 16:04:00,SystemResetWarning,0826.6,5.00,000.00,025.7,025.1,000.0,033.8,027.5,023.5,0000.0,0004.77,0015.12,0003.71
2024-05-20 16:05:00,SystemResetWarning,0826.6,5.01,000.00,025.7,025.1,000.0,033.8,027.5,023.4,0000.0,0004.72,0014.67,0003.71
2024-05-20 16:06:00,SystemResetWarning,0826.6,5.01,000.00,025.7,025.2,000.0,033.8,027.6,023.3,0000.0,0004.75,0014.71,0003.70
2024-05-20 16:07:00,SystemResetWarning,0826.6,5.00,000.00,025.7,025.2,000.0,033.9,027.6,023.1,0000.0,0004.76,0014.96,0003.71
2024-05-20 16:08:00,SystemResetWarning,0826.6,4.99,000.00,025.8,025.2,000.0,033.9,027.6,023.3,0000.0,0004.82,0017.46,0003.71
2024-05-20 16:09:00,SystemResetWarning,0826.6,5.00,000.00,025.8,025.2,000.0,033.9,027.6,023.0,0000.0,0004.86,0017.82,0003.72
2024-05-20 16:10:00,SystemResetWarning,0826.6,5.01,000.00,025.8,025.2,000.0,033.9,027.6,023.6,0000.0,0004.89,0017.70,0003.73
2024-05-20 16:11:00,SystemResetWarning,0826.6,5.01,000.00,025.8,025.2,000.0,033.9,027.6,023.6,0000.0,0004.88,0018.79,0003.72
2024-05-20 16:12:00,SystemResetWarning,0826.5,5.00,000.00,025.8,025.2,000.0,034.0,027.6,023.9,0000.0,0004.90,0019.61,0003.72
2024-05-20 16:13:00,SystemResetWarning,0826.4,4.99,000.00,025.9,025.3,000.0,034.0,027.7,023.3,0000.0,0004.95,0019.78,0003.71
2024-05-20 16:14:00,SystemResetWarning,0826.4,4.98,000.00,025.9,025.3,000.0,034.0,027.7,024.1,0000.0,0004.95,0019.23,0003.72
2024-05-20 16:15:00,SystemResetWarning,0826.4,5.01,000.00,025.9,025.3,000.0,034.0,027.7,023.8,0000.0,0004.98,0019.92,0003.72
2024-05-20 16:16:00,SystemResetWarning,0826.4,5.01,000.00,025.9,025.3,000.0,034.0,027.7,023.0,0000.0,0005.09,0021.78,0003.74
2024-05-20 16:17:00,SystemResetWarning,0826.4,5.01,000.00,025.9,025.3,000.0,034.1,027.8,022.9,0000.0,0005.14,0022.51,0003.78
2024-05-20 16:18:00,SystemResetWarning,0826.4,5.00,000.00,026.0,025.4,000.0,034.1,027.8,024.0,0000.0,0005.19,0022.04,0003.81
2024-05-20 16:19:00,SystemResetWarning,0826.3,4.99,000.00,026.0,025.4,000.0,034.1,027.8,023.2,0000.0,0005.14,0019.46,0003.81
2024-05-20 16:20:00,SystemResetWarning,0826.4,5.00,000.00,026.0,025.4,000.0,034.1,027.8,023.6,0000.0,0005.15,0019.45,0003.83
2024-05-20 16:21:00,SystemResetWarning,0826.4,5.00,000.00,026.0,025.4,000.0,034.1,027.8,023.6,0000.0,0005.23,0020.05,0003.85
2024-05-20 16:22:00,SystemResetWarning,0826.4,5.00,000.00,026.0,025.4,000.0,034.1,027.8,022.9,0000.0,0005.27,0018.39,0003.88
2024-05-20 16:23:00,SystemResetWarning,0826.4,5.00,000.00,026.0,025.4,000.0,034.2,027.9,023.1,0000.0,0005.26,0018.64,0003.90
2024-05-20 16:24:00,SystemResetWarning,0826.4,5.01,000.00,026.1,025.4,000.0,034.2,027.9,023.3,0000.0,0005.22,0019.19,0003.92
2024-05-20 16:25:00,SystemResetWarning,0826.4,5.00,000.00,026.1,025.5,000.0,034.2,027.9,023.1,0000.0,0005.28,0020.90,0003.94
2024-05-20 16:26:00,SystemResetWarning,0826.4,5.00,000.00,026.1,025.5,000.0,034.2,027.9,023.3,0000.0,0005.37,0021.92,0003.98
2024-05-20 16:27:00,SystemResetWarning,0826.4,5.00,000.00,026.1,025.5,000.0,034.2,027.9,023.3,0000.0,0005.39,0020.56,0004.01
2024-05-20 16:28:00,SystemResetWarning,0826.4,4.99,000.00,026.1,025.5,000.0,034.3,027.9,023.0,0000.0,0005.45,0019.52,0004.02
2024-05-20 16:29:00,SystemResetWarning,0826.4,5.00,000.00,026.1,025.5,000.0,034.3,028.0,022.7,0000.0,0005.45,0019.59,0004.04
2024-05-20 16:30:00,SystemResetWarning,0826.4,5.01,000.00,026.2,025.5,000.0,034.3,028.0,022.6,0000.0,0005.57,0019.84,0004.09
2024-05-20 16:31:00,SystemResetWarning,0826.3,5.01,000.00,026.2,025.5,000.0,034.3,028.0,022.6,0000.0,0005.65,0019.63,0004.12
2024-05-20 16:32:00,SystemResetWarning,0826.3,4.98,000.00,026.2,025.6,000.0,034.3,028.0,022.6,0000.0,0005.62,0020.03,0004.15
2024-05-20 16:33:00,SystemResetWarning,0826.2,4.99,000.00,026.2,025.6,000.0,034.3,028.0,022.8,0000.0,0005.63,0020.66,0004.17
2024-05-20 16:34:00,SystemResetWarning,0826.3,5.01,000.00,026.2,025.6,000.0,034.4,028.0,022.8,0000.0,0005.68,0019.66,0004.20
2024-05-20 16:35:00,SystemResetWarning,0826.2,5.00,000.00,026.2,025.6,000.0,034.4,028.1,022.7,0000.0,0005.76,0019.99,0004.23
2024-05-20 16:36:00,SystemResetWarning,0826.2,5.01,000.00,026.3,025.6,000.0,034.4,028.1,023.1,0000.0,0005.77,0019.06,0004.24
2024-05-20 16:37:00,SystemResetWarning,0826.2,5.00,000.00,026.3,025.7,000.0,034.4,028.1,023.4,0000.0,0005.70,0017.71,0004.24
2024-05-20 16:38:00,SystemResetWarning,0826.3,5.00,000.00,026.3,025.7,000.0,034.4,028.1,022.9,0000.0,0005.69,0017.34,0004.24
2024-05-20 16:39:00,SystemResetWarning,0826.3,5.00,000.00,026.3,025.7,000.0,034.4,028.1,023.3,0000.0,0005.64,0017.79,0004.24
2024-05-20 16:40:00,SystemResetWarning,0826.3,5.00,000.00,026.3,025.7,000.0,034.4,028.1,022.8,0000.0,0005.62,0018.55,0004.22
2024-05-20 16:41:00,SystemResetWarning,0826.2,5.00,000.00,026.3,025.7,000.0,034.5,028.1,022.8,0000.0,0005.58,0019.79,0004.21
2024-05-20 16:42:00,SystemResetWarning,0826.2,5.00,000.00,026.3,025.7,000.0,034.5,028.1,023.0,0000.0,0005.55,0019.70,0004.19
2024-05-20 16:43:00,SystemResetWarning,0826.3,5.00,000.00,026.3,025.7,000.0,034.5,028.1,023.1,0000.0,0005.59,0019.23,0004.18
2024-05-20 16:44:00,SystemResetWarning,0826.3,5.00,000.00,026.4,025.7,000.0,034.5,028.2,023.0,0000.0,0005.58,0018.46,0004.19
2024-05-20 16:45:00,SystemResetWarning,0826.2,5.00,000.00,026.4,025.7,000.0,034.5,028.2,022.7,0000.0,0005.55,0017.90,0004.18
2024-05-20 16:46:00,SystemResetWarning,0826.2,5.00,000.00,026.4,025.7,000.0,034.5,028.2,023.3,0000.0,0005.58,0017.51,0004.19
2024-05-20 16:47:00,SystemResetWarning,0826.2,5.00,000.00,026.4,025.7,000.0,034.6,028.2,023.6,0000.0,0005.59,0017.58,0004.19
2024-05-20 16:48:00,SystemResetWarning,0826.2,5.00,000.00,026.4,025.8,000.0,034.6,028.2,022.7,0000.0,0005.61,0017.47,0004.21
2024-05-20 16:49:00,SystemResetWarning,0826.2,5.00,000.00,026.4,025.8,000.0,034.6,028.2,022.8,0000.0,0005.64,0017.36,0004.24
2024-05-20 16:50:00,SystemResetWarning,0826.2,5.00,000.00,026.4,025.8,000.0,034.6,028.2,023.0,0000.0,0005.69,0016.76,0004.26
2024-05-20 16:51:00,SystemResetWarning,0826.3,5.00,000.00,026.4,025.8,000.0,034.6,028.2,022.7,0000.0,0005.77,0016.05,0004.28
2024-05-20 16:52:00,SystemResetWarning,0826.3,5.00,000.00,026.5,025.8,000.0,034.6,028.3,022.5,0000.0,0005.73,0015.11,0004.29
2024-05-20 16:53:00,SystemResetWarning,0826.3,5.00,000.00,026.5,025.8,000.0,034.6,028.3,022.6,0000.0,0005.77,0015.30,0004.31
2024-05-20 16:54:00,SystemResetWarning,0826.3,4.99,000.00,026.5,025.8,000.0,034.6,028.3,022.6,0000.0,0005.81,0015.89,0004.33
2024-05-20 16:55:00,SystemResetWarning,0826.2,4.99,000.00,026.5,025.9,000.0,034.7,028.3,022.9,0000.0,0005.82,0016.37,0004.34
2024-05-20 16:56:00,SystemResetWarning,0826.2,5.00,000.00,026.5,025.9,000.0,034.7,028.3,022.9,0000.0,0005.87,0016.53,0004.36
2024-05-20 16:57:00,SystemResetWarning,0826.2,5.00,000.00,026.5,025.9,000.0,034.7,028.3,023.3,0000.0,0005.84,0015.82,0004.36
2024-05-20 16:58:00,SystemResetWarning,0826.2,5.00,000.00,026.5,025.9,000.0,034.7,028.3,023.2,0000.0,0005.84,0015.34,0004.37
2024-05-20 16:59:00,SystemResetWarning,0826.2,5.00,000.00,026.6,025.9,000.0,034.7,028.4,022.8,0000.0,0005.86,0016.03,0004.36
